{"data":{"norad_id":62374,"intl_designator":"2024-246A","name":"TJS-12","alt_names":[],"object_type":"PAYLOAD","status":"ACTIVE","operator":null,"country":"PRC","launch_date":"2024-12-20","launch_site_code":"XICLF","launch_vehicle":null,"mission":null,"orbit_class":"UNKNOWN","rcs_meters":null,"size_class":null,"mass_kg":null,"dimensions":null,"purposes":["comms"],"wikipedia_slug":null,"has_3d_model":false,"image_url":null,"decayed_at":null,"tle_current":{"epoch":"2026-05-25T04:26:20.761728Z","epoch_age_seconds":62233,"freshness":"FRESH","line1":"1 62374U 24246A   26145.18496252 -.00000235  00000+0  00000+0 0  9994","line2":"2 62374   0.7199 297.1509 0002183  71.1013  87.5865  1.00268562  5330","mean_motion":1.00268562,"eccentricity":0.0002183,"inclination_deg":0.7199,"raan_deg":297.1509,"arg_perigee_deg":71.1013,"mean_anomaly_deg":87.5865,"bstar":0,"rev_number":533,"period_min":1436.1430654605,"perigee_km":35778.293751059,"apogee_km":35796.703267523,"semimajor_km":42165.635509291,"source":"CELESTRAK","updated_at":"2026-05-25T13:38:14.149295Z"}}}